GW5822 Weather Reports


time (UTC)temp
C
wind
direction
speed
KPH
gust
KPH
rain 1hr
cm
rain 24hr
cm
rain mn
cm
humidity
%
barometer
mb
20260503005652 15 289 3.2 9.7 0.00 0.00 0.00 40 1007.2
20260503004529 15 240 0.0 3.2 0.00 0.00 0.00 40 1007.2
20260503003546 15 343 3.2 9.7 0.00 0.00 0.00 38 1007.2
20260503002522 15 132 3.2 6.4 0.00 0.00 0.00 38 1007.3
20260503001519 16 137 3.2 9.7 0.00 0.00 0.00 38 1007.3
20260503000557 16 120 1.6 6.4 0.00 0.00 0.00 37 1007.4
20260502235532 16 174 3.2 9.7 0.00 0.00 0.00 36 1007.4
20260502234529 16 177 4.8 8.0 0.00 0.00 0.00 36 1007.5
20260502233526 16 134 1.6 4.8 0.00 0.00 0.00 36 1007.7
20260502232522 16 150 1.6 6.4 0.00 0.00 0.00 36 1007.8
20260502231519 16 76 1.6 4.8 0.00 0.00 0.00 36 1007.8
20260502230537 16 122 3.2 8.0 0.00 0.00 0.00 35 1008.1
20260502225532 17 269 6.4 20.9 0.00 0.00 0.00 34 1008.1
20260502224529 17 150 3.2 9.7 0.00 0.00 0.00 33 1008.2
20260502223527 17 198 4.8 22.5 0.00 0.00 0.00 33 1008.3
20260502222522 17 206 4.8 14.5 0.00 0.00 0.00 33 1008.5
20260502221620 17 290 3.2 6.4 0.00 0.00 0.00 33 1008.6
20260502220556 17 282 4.8 17.7 0.00 0.00 0.00 33 1008.8
20260502215531 17 292 6.4 22.5 0.00 0.00 0.00 31 1008.8
20260502214528 17 244 4.8 11.3 0.00 0.00 0.00 32 1009.0
20260502213545 16 216 3.2 12.9 0.00 0.00 0.00 33 1009.1
20260502212521 16 187 4.8 16.1 0.00 0.00 0.00 32 1009.1
20260502211518 17 267 4.8 16.1 0.00 0.00 0.00 31 1009.3
20260502210534 16 285 4.8 14.5 0.00 0.00 0.00 31 1009.4
20260502205531 17 178 4.8 9.7 0.00 0.00 0.00 30 1009.4
20260502204528 17 177 6.4 16.1 0.00 0.00 0.00 30 1009.6
20260502203524 17 219 3.2 9.7 0.00 0.00 0.00 30 1009.7
20260502202521 17 214 6.4 22.5 0.00 0.00 0.00 30 1009.9
20260502201518 17 148 4.8 12.9 0.00 0.00 0.00 30 1010.2
20260502200555 17 263 4.8 11.3 0.00 0.00 0.00 30 1010.3
20260502195531 17 248 6.4 12.9 0.00 0.00 0.00 30 1010.3
20260502194527 16 171 3.2 12.9 0.00 0.00 0.00 31 1010.7
20260502193604 17 270 6.4 17.7 0.00 0.00 0.00 30 1010.8
20260502192521 16 258 4.8 12.9 0.00 0.00 0.00 30 1010.9
20260502191518 16 183 6.4 12.9 0.00 0.00 0.00 30 1011.2
20260502190534 16 207 6.4 14.5 0.00 0.00 0.00 29 1011.4
20260502185530 16 292 4.8 14.5 0.00 0.00 0.00 29 1011.7
20260502184547 15 355 4.8 9.7 0.00 0.00 0.00 28 1011.7
20260502183524 15 300 6.4 14.5 0.00 0.00 0.00 29 1011.9
20260502182521 15 176 4.8 9.7 0.00 0.00 0.00 28 1012.2
20260502181537 15 163 4.8 16.1 0.00 0.00 0.00 29 1012.4
20260502180534 15 269 4.8 14.5 0.00 0.00 0.00 29 1012.6
20260502163524 13 196 6.4 16.1 0.00 0.00 0.00 31 1014.1
20260502162520 13 305 4.8 19.3 0.00 0.00 0.00 30 1014.1
20260502161517 13 159 4.8 11.3 0.00 0.00 0.00 31 1014.2
20260502160535 12 214 4.8 17.7 0.00 0.00 0.00 31 1014.5
20260502151517 12 264 6.4 14.5 0.00 0.00 0.00 34 1015.2
20260502150555 11 310 4.8 9.7 0.00 0.00 0.00 33 1015.4
20260502130535 3 58 1.6 8.0 0.00 0.00 0.00 72 1016.1
20260502123526 0 97 0.0 4.8 0.00 0.00 0.00 90 1016.1
20260502122522 -1 19 4.8 9.7 0.00 0.00 0.00 91 1016.2
20260502121519 -2 199 0.0 3.2 0.00 0.00 0.00 92 1016.1
20260502120535 -3 197 1.6 6.4 0.00 0.00 0.00 93 1016.1
20260502115531 -3 58 1.6 4.8 0.00 0.00 0.00 93 1016.2
20260502114548 -4 29 3.2 4.8 0.00 0.00 0.00 94 1016.2
20260502113525 -4 167 0.0 4.8 0.00 0.00 0.00 94 1016.2
20260502112521 -4 207 3.2 4.8 0.00 0.00 0.00 94 1016.1
20260502111539 -4 261 1.6 4.8 0.00 0.00 0.00 94 1016.1
20260502110535 -4 192 1.6 4.8 0.00 0.00 0.00 94 1016.1
20260502105531 -4 356 4.8 8.0 0.00 0.00 0.00 93 1016.2
20260502104527 -4 211 1.6 6.4 0.00 0.00 0.00 93 1016.2
20260502103525 -4 321 1.6 6.4 0.00 0.00 0.00 93 1016.2
20260502102541 -4 178 1.6 4.8 0.00 0.00 0.00 93 1016.2
20260502100615 -4 268 1.6 4.8 0.00 0.00 0.00 93 1016.4
20260502091517 -3 222 1.6 6.4 0.00 0.00 0.00 91 1016.3
20260502090535 -3 274 1.6 6.4 0.00 0.00 0.00 90 1016.3
20260502071031 -3 0.0 0.0 0.00 0.00 0.00 87 1016.9
20260502070027 -3 0.0 1.6 0.00 0.00 0.00 89 1016.9
20260502065025 -3 0.0 1.6 0.00 0.00 0.00 87 1017.0
20260502064021 -2 0.0 0.0 0.00 0.00 0.00 87 1017.1
20260502063017 -2 0.0 1.6 0.00 0.00 0.00 86 1017.1
20260502062034 -2 0.0 0.0 0.00 0.00 0.00 85 1017.1
20260502061031 -2 0.0 0.0 0.00 0.00 0.00 86 1017.1
20260502060027 -2 0.0 0.0 0.00 0.00 0.00 86 1017.0
20260502055104 -2 0.0 0.0 0.00 0.00 0.00 85 1017.1
20260502054021 -2 0.0 0.0 0.00 0.00 0.00 84 1017.0
20260502053017 -2 0.0 1.6 0.00 0.00 0.00 85 1017.2
20260502052035 -2 181 0.0 1.6 0.00 0.00 0.00 84 1017.2
20260502051031 -2 0.0 1.6 0.00 0.00 0.00 84 1017.1
20260502050029 -2 0.0 1.6 0.00 0.00 0.00 83 1017.2
20260502045024 -2 0.0 0.0 0.00 0.00 0.00 83 1017.1
20260502044021 -2 0.0 0.0 0.00 0.00 0.00 83 1017.3
20260502043038 -2 135 0.0 1.6 0.00 0.00 0.00 82 1017.2
20260502042035 -2 0.0 0.0 0.00 0.00 0.00 82 1017.1
20260502041031 -1 0.0 1.6 0.00 0.00 0.00 80 1017.2
20260502040027 -1 212 0.0 1.6 0.00 0.00 0.00 81 1017.1
20260502035045 -1 134 0.0 1.6 0.00 0.00 0.00 79 1017.2
20260502034041 -1 157 0.0 1.6 0.00 0.00 0.00 78 1017.2
20260502033017 -1 140 0.0 3.2 0.00 0.00 0.00 80 1017.3
20260502032035 -1 141 0.0 3.2 0.00 0.00 0.00 77 1017.3
20260502031031 0 150 0.0 3.2 0.00 0.00 0.00 77 1017.2
20260502030027 0 130 0.0 3.2 0.00 0.00 0.00 74 1017.2
20260502025023 0 128 1.6 3.2 0.00 0.00 0.00 71 1017.3
20260502024020 0 153 1.6 3.2 0.00 0.00 0.00 72 1017.2
20260502023036 1 0.0 1.6 0.00 0.00 0.00 71 1017.2
20260502022033 1 0.0 0.0 0.00 0.00 0.00 67 1017.1
20260502021030 1 142 0.0 1.6 0.00 0.00 0.00 64 1017.1
20260502020026 2 131 1.6 3.2 0.00 0.00 0.00 57 1017.0
20260502015023 2 144 1.6 3.2 0.00 0.00 0.00 56 1016.9
20260502014020 3 162 0.0 1.6 0.00 0.00 0.00 56 1016.8
20260502013056 3 116 3.2 3.2 0.00 0.00 0.00 52 1016.8
20260502012033 4 147 3.2 4.8 0.00 0.00 0.00 51 1016.7
20260502011030 5 129 3.2 6.4 0.00 0.00 0.00 51 1016.7